Погода в Вознесенске

Украина / Николаевская область     47°33′37″N   31°20′10″E
темп.,
°C
ветер,
м/с
пор.,
м/с
влажн.,
%
обл.,
%
осадки,
мм/ч
давл.,
гПа
погр.,
м
27 ноября, сб
сб2723:00+7юв101870100 0.0 1006828
02:00+10ююв121989100 1.7 1002945
05:00+10ю91595100 7.5 1000887
08:00+10ююз51086100 7.7 1001559
11:00+12ююз7107330 0.0 1002631
14:00+14ююз61259100 0.0 10011018
17:00+11ююз5107386 0.0 1002289
20:00+9ююз49874 0.0 1003196
28 ноября, вс
вс2823:00+7ююз35860 0.0 100585
02:00+7юз33860 0.0 100638
05:00+6ююз22830 0.0 100510
08:00+6юв34815 0.0 100558
11:00+12ююв6117190 0.0 1004472
14:00+14ююв5980100 0.0 1003699
17:00+11юв6129752 0.0 1002379
20:00+11юв41098100 0.3 1001459
29 ноября, пн
пн2923:00+11ю4998100 0.2 1001376
02:00+9ююв41097100 0.2 1000233
05:00+10ююв61392100 0.0 997370
08:00+11ю71491100 0.0 996762
11:00+13ю8138692 0.2 994835
14:00+13ююз81388100 1.9 991620
17:00+12юз51087100 2.0 990376
20:00+8зсз7138070 3.6 994869
30 ноября, вт
вт3023:00+6зсз51371100 0.0 997590
02:00+4з51174100 0.0 1000487
05:00+3з410775 0.0 1002379
08:00+2з397878 0.0 1004352
11:00+4сз585913 0.0 1004532
14:00+5сз6851100 0.0 1002805
17:00+4сз5959100 0.0 1004889
20:00+2сз71364100 0.0 1004808
1 декабря, ср
ср123:00+1сз6136814 0.0 1006631
02:00−1зсз510720 0.0 1008344
05:00−2з510720 0.0 1009291
08:00−1юз38695 0.0 1010213
11:00+3юз6856100 0.0 1009557
14:00+4зюз5851100 0.0 1008640
17:00+2юз36635 0.0 1009102
20:00+1юз35685 0.0 100977